YAOGAN-26

Last updated on Mon Sep 21 2026 00:02:45 GMT+0000 (Coordinated Universal Time)

1 40362U 14088A 26263.60284941 .00015083 00000+0 26149-3 0 9990 2 40362 97.0707 261.8499 0005489 70.7127 289.4719 15.50957958652474
UTC large
Height (km)
Speed (km/s)
/
Latitude / Longitude
Inclination (degrees)
Orbital Period (minutes)
Azimuth
Elevation
Range (km)
Doppler Factor

Next 0 passes for location: London (51.5072 / 0.1276)

No passes found over London.
YAOGAN-26